Starlink 4473

operational
NORAD ID: 53660 Int'l Des: 2022-105 Owner: SPXS Country: US Constellation: starlink
LEOCIRCULARRETROGRADESSO

Über Starlink 4473

Beschreibung wird geladen...

Live-Position

3D-Globus wird geladen...

Nächste Überflüge

Höhenverlauf

Altitude vs Time

uPlot chart will show altitude changes over time

Zweizeiliger Elementsatz

1 53660U 22105N 25260.12663302 .00000045 00000-0 80700-5 0 9997
2 53660 97.6035 140.2941 0001341 116.5189 243.6173 15.01261741167191
Epoch: 17. Sept. 2025 • Age: 13 hours

Aktueller Status

Höhe 575.0 km
Geschwindigkeit 7.58 km/s
Subsatellitenpunkt 74.24°N, 126.7°W
Startdatum 31. Aug. 2022
Alter 3 years
Typ internet

Technische Details

Klassifizierung Payload
Masse 300.00 kg
Trockenmasse 290.00 kg
Gesamtmasse 300.00 kg
Länge 0.20 m
Durchmesser 2.80 m
Spannweite 9.00 m
Form Box + pan
Hersteller SPXS
Bus-Typ Starlink
Phasenstatus In Orbit
Besitzer/Staat SPXS/US

Große Konstellationen

Loading constellations...